Location: Caltech
(34.1382°N, 118.1253°W)
Time: 13:00:59
(UTC-07:00)

Cosmos 2251 Rocket - Visible Passes

Search period start: 31 October 2014 00:00
Search period end: 09 November 2014 23:00
Orbit: 766 x 792 km, 74.0° (Epoch: 31 October)

Date Brightness Start Highest point End Pass type
(mag) Time Alt. Az. Time Alt. Az. Time Alt. Az.
31 Oct 6.8 06:43:27 10° SE 06:46:12 15° E 06:48:58 10° ENE visible
31 Oct 4.9 18:56:08 10° NNW 19:01:09 44° WSW 19:06:10 10° S visible
01 Nov 3.9 18:22:18 10° NNW 18:27:36 74° WSW 18:32:54 10° S visible
02 Nov 7.1 18:33:58 10° WNW 18:35:35 11° W 18:37:13 10° WSW visible
03 Nov 5.6 05:42:35 10° SSE 05:47:11 33° E 05:51:49 10° NE visible
03 Nov 6.5 17:58:26 10° NW 18:02:12 20° W 18:05:59 10° SW visible
04 Nov 6.5 05:10:05 10° SE 05:13:45 20° E 05:17:25 10° NE visible
04 Nov 5.6 17:24:03 10° NW 17:28:45 33° W 17:33:29 10° SSW visible
05 Nov 7.0 04:38:56 10° ESE 04:40:22 11° E 04:41:48 10° ENE visible
06 Nov 3.8 05:43:09 10° S 05:48:20 75° ESE 05:53:34 10° NNE visible
07 Nov 4.8 05:09:52 10° S 05:14:47 44° ESE 05:19:43 10° NNE visible
07 Nov 6.8 17:26:51 10° WNW 17:29:45 15° W 17:32:39 10° SW visible
08 Nov 5.8 04:37:02 10° SSE 04:41:18 26° E 04:45:34 10° NE visible
09 Nov 6.5 04:04:55 10° SE 04:07:53 15° E 04:10:51 10° ENE visible
09 Nov 3.7 05:44:38 10° SW 05:49:40 49° WNW 05:54:45 10° N visible
